[[{"header":{"parameterUnit":"m.s-1","parameterCategory":1,"la1":30.2991,"la2":30.254,"lo1":-89.0895,"lo2":-89.0444,"dy":0.0017,"dx":0.0017,"nx":28,"ny":28,"refTime":"2024-10-14T21:00:00:Z","depth":0,"parameterNumber":2,"parameterNumberName":"U-component_of_WINDS"},"data":[0,0,0,0,0,0,0,0,0,0,0,0,0,0,0,0,0,0,0,0,0,0,0,0,0,0,0,0,0,0,0,0,0,0,0,0,0,0,0,0,0,0,0,0,0,0,0,0,0,0,0,0,0,0,0,0,0,0,1.8314,1.8314,0,1.8376,1.8376,1.8377,1.8287,1.8283,1.828,1.8277,1.8347,1.8352,1.8357,0,0,0,0,0,0,0,0,0,0,0,0,0,1.8125,1.8129,1.8314,1.8314,1.8315,1.8375,1.8376,1.8377,1.8287,1.8283,1.8279,1.8276,1.8346,1.8352,1.8357,0,0,0,0,0,0,0,0,0,0,0,0,0,1.8199,1.8131,1.8313,1.8277,1.8275,1.8375,1.8376,1.8377,1.8288,1.8283,1.8278,1.8274,1.8344,1.8351,1.8358,1.8499,0,0,1.838,1.8383,0,0,0,0,0,0,0,0,1.8195,1.8206,1.8282,1.828,1.8277,1.8318,1.8335,1.8418,1.8289,1.8283,1.8277,1.8272,1.8342,1.8349,1.8371,1.8502,1.8505,1.8381,1.8385,1.8388,1.8391,0,0,0,0,0,0,0,1.819,1.8203,1.8338,1.8283,1.828,1.8261,1.8266,1.8351,1.8339,1.8283,1.8277,1.8285,1.834,1.8365,1.8372,1.8506,1.8381,1.8387,1.8392,1.8395,1.8759,1.8764,0,0,0,0,0,0,1.8189,1.82,1.8336,1.834,1.8223,1.8268,1.8274,1.831,1.8338,1.8337,1.8289,1.8281,1.8355,1.8364,1.8375,1.8543,1.8388,1.8395,1.8399,1.8754,1.876,1.8766,0,0,0,0,0,0,1.8185,1.8202,1.8334,1.8268,1.8283,1.8276,1.8318,1.8314,1.8338,1.8342,1.834,1.8316,1.8351,1.8364,1.8469,1.8544,1.8399,1.8405,1.8747,1.8756,1.8763,1.8879,0,0,0,0,0,0,1.818,1.8201,1.8252,1.827,1.8287,1.8425,1.8322,1.8319,1.835,1.834,1.8367,1.8367,1.8348,1.8458,1.8476,1.8551,1.8411,1.8741,1.8751,1.876,1.8869,1.889,1.8909,0,0,0,0,0,1.8173,1.8283,1.8255,1.8272,1.8351,1.8429,1.8439,1.8414,1.8357,1.841,1.8413,1.8366,1.8533,1.847,1.8489,1.8568,1.8736,1.8748,1.876,1.886,1.8886,1.8908,0,0,0,0,0,0,1.8276,1.8285,1.8254,1.8372,1.84,1.8414,1.8479,1.8442,1.8489,1.8478,1.8446,1.8454,1.8566,1.8577,1.8507,1.8707,1.8625,1.8642,1.8695,1.872,1.874,1.8735,1.8417,0,0,0,0,0,1.8312,1.8372,1.8378,1.8482,1.8498,1.8487,1.852,1.8498,1.8527,1.8539,1.8549,1.8581,1.8641,1.8681,1.8736,1.887,1.8876,1.8934,1.8954,1.897,1.8985,1.906,1.9086,1.8805,1.8805,1.8805,0,0,1.8388,1.84,1.844,1.8503,1.8522,1.8588,1.8497,1.857,1.862,1.8551,1.8649,1.8659,1.8693,1.8813,1.8867,1.8826,1.9064,1.8986,1.8999,1.9005,1.9075,1.9101,1.9125,1.8813,1.8812,1.881,0,0,1.8559,1.8574,1.8663,1.8684,1.8714,1.8707,1.8729,1.8748,1.8751,1.885,1.88,1.886,1.8963,1.899,1.9017,1.9202,1.9162,1.9221,1.9326,1.9399,1.9421,1.944,1.9508,1.9533,1.9236,1.9236,1.9236,0,1.865,1.8744,1.8714,1.8791,1.8821,1.8761,1.8853,1.8876,1.8924,1.8947,1.8901,1.903,1.9049,1.9176,1.9221,1.9245,1.9271,1.9218,1.942,1.9439,1.9457,1.9521,1.9547,1.9243,1.9242,1.9242,1.9241,0,1.8856,1.8923,1.8992,1.9038,1.9076,1.916,1.9145,1.9188,1.9164,1.9163,1.9266,1.9286,1.9345,1.9374,1.9351,1.9499,1.9473,1.9424,1.9341,1.9491,1.9551,1.9576,1.9253,1.9251,1.9249,1.9247,0,0,1.9091,1.9121,1.9147,1.9168,1.9198,1.9251,1.9334,1.939,1.9429,1.9465,1.9536,1.9626,1.9581,1.9612,1.9593,1.9657,1.9805,1.96,1.96,1.9638,1.9971,2.0009,2.0037,1.9778,1.9783,1.9786,1.9969,0,1.9263,1.9404,1.938,1.9518,1.9582,1.9527,1.96,1.9628,1.963,1.9686,1.9688,1.9753,1.9688,1.9707,1.9768,1.9774,1.9871,1.976,1.9846,1.985,1.984,2.0068,2.0107,2.0278,1.9992,1.9996,1.9999,0,1.9482,1.9525,1.9669,1.9691,1.9717,1.9783,1.9834,1.9887,1.992,1.9917,1.9953,1.9922,2.0009,1.9925,2.0046,1.9971,2.0005,2.0014,2.002,2.0027,1.9933,2.0083,2.0332,2.0358,2.0035,2.0032,2.003,0,1.9641,1.9735,1.9834,1.9854,1.9882,1.993,1.9945,1.9972,2.0008,2.0054,2.0078,2.0134,2.0165,2.0211,2.0198,2.0138,2.0323,2.0237,2.0325,2.0325,2.0366,2.0363,2.0625,2.0387,2.0387,2.0386,2.0386,0,1.9835,1.9926,1.9906,1.9967,2.0068,2.0042,2.0144,2.0152,2.0177,2.0241,2.0198,2.0259,2.0238,2.0299,2.029,2.0393,2.0407,2.0409,2.0406,2.0413,2.0413,2.0435,2.0423,2.0393,2.0392,2.039,2.0389,0,2.003,2.0019,2.0124,2.0143,2.015,2.0224,2.0241,2.03,2.0299,2.0381,2.0398,2.0398,2.0468,2.0459,2.0538,2.0532,2.066,2.0642,2.0648,2.0644,2.0733,2.0725,2.1018,2.1056,2.0793,2.0796,2.0798,0,2.0154,2.0223,2.0249,2.0288,2.0306,2.0369,2.0406,2.0384,2.0425,2.0468,2.0523,2.0589,2.064,2.0755,2.0764,2.0825,2.0808,2.0907,2.0817,2.0823,2.0811,2.0808,2.0815,2.0925,2.0928,2.093,2.0932,0,2.0377,2.037,2.0423,2.0476,2.0521,2.0562,2.0599,2.0634,2.0617,2.0665,2.0735,2.0775,2.0856,2.0923,2.0981,2.0999,2.0965,2.096,2.0984,2.0992,2.0994,2.0996,2.0697,2.0954,2.0951,2.095,2.0949,2.0948,2.0541,2.06,2.0629,2.0691,2.0716,2.0753,2.0809,2.0816,2.0873,2.0936,2.092,2.1001,2.1035,2.1109,2.1133,2.1198,2.1162,2.1196,2.1205,2.1214,2.1224,2.0983,2.1208,2.1207,2.1207,2.1206,2.1206,0,2.0763,2.0779,2.0836,2.0889,2.0939,2.09,2.094,2.0985,2.1056,2.1089,2.1141,2.1224,2.129,2.1304,2.1367,2.1416,2.1402,2.1434,2.143,2.1436,2.1252,2.1225,2.1444,2.1444,2.1444,2.1444,2.1444,2.1444,2.0884,2.0983,2.0979,2.1091,2.1107,2.1184,2.121,2.1245,2.1272,2.1365,2.1419,2.1427,2.1455,2.152,2.158,2.1582,2.1608,2.1647,2.1644,2.1472,2.1448,2.1425,2.14,2.1653,2.1653,2.1822,2.1824,2.1825]},{"header":{"parameterUnit":"m.s-1","parameterCategory":1,"la1":30.2991,"la2":30.254,"lo1":-89.0895,"lo2":-89.0444,"dy":0.0017,"dx":0.0017,"nx":28,"ny":28,"refTime":"2024-10-14T21:00:00:Z","depth":0,"parameterNumber":3,"parameterNumberName":"V-component_of_WINDS"},"data":[0,0,0,0,0,0,0,0,0,0,0,0,0,0,0,0,0,0,0,0,0,0,0,0,0,0,0,0,0,0,0,0,0,0,0,0,0,0,0,0,0,0,0,0,0,0,0,0,0,0,0,0,0,0,0,0,0,0,0.9097,0.9098,0,0.9189,0.919,0.9191,0.9133,0.913,0.9128,0.9125,0.9228,0.9233,0.9239,0,0,0,0,0,0,0,0,0,0,0,0,0,0.8877,0.8881,0.9097,0.9098,0.9099,0.9189,0.919,0.9192,0.9134,0.913,0.9127,0.9124,0.9227,0.9233,0.9239,0,0,0,0,0,0,0,0,0,0,0,0,0,0.8971,0.8882,0.9097,0.9081,0.908,0.9189,0.919,0.9192,0.9134,0.913,0.9126,0.9122,0.9224,0.9232,0.924,0.9372,0,0,0.9264,0.9268,0,0,0,0,0,0,0,0,0.8966,0.8979,0.9082,0.9082,0.9082,0.9145,0.9151,0.9253,0.9135,0.9114,0.9125,0.912,0.9205,0.9214,0.9241,0.9377,0.9381,0.9265,0.927,0.9273,0.9276,0,0,0,0,0,0,0,0.896,0.8975,0.9134,0.9084,0.9083,0.9071,0.908,0.917,0.9182,0.9116,0.9112,0.9123,0.9204,0.9233,0.9243,0.9383,0.9265,0.9272,0.9277,0.928,0.9631,0.9635,0,0,0,0,0,0,0.8953,0.897,0.9131,0.9136,0.9012,0.9079,0.9088,0.9129,0.918,0.9184,0.9126,0.912,0.9221,0.9233,0.9246,0.9403,0.9273,0.9281,0.9285,0.9626,0.9632,0.9637,0,0,0,0,0,0,0.8949,0.8968,0.9127,0.9052,0.9071,0.9087,0.9133,0.9133,0.9162,0.9188,0.9191,0.9154,0.9219,0.9235,0.934,0.9406,0.9284,0.9292,0.9621,0.9628,0.9634,0.9719,0,0,0,0,0,0,0.8943,0.8967,0.9016,0.9054,0.9076,0.9218,0.9137,0.9138,0.9175,0.9168,0.9215,0.9219,0.9217,0.9329,0.9348,0.9415,0.9298,0.9615,0.9624,0.9632,0.971,0.9728,0.9742,0,0,0,0,0,0.8935,0.9038,0.9019,0.9038,0.9137,0.9222,0.9235,0.9228,0.9181,0.9231,0.9247,0.9217,0.9395,0.934,0.9361,0.9431,0.9611,0.9621,0.9631,0.9703,0.9724,0.9742,0,0,0,0,0,0,0.9012,0.9043,0.9022,0.914,0.9178,0.9212,0.9275,0.9251,0.9306,0.9297,0.9288,0.93,0.9409,0.9431,0.9369,0.9561,0.9496,0.9511,0.9543,0.9563,0.9579,0.9572,0.9305,0,0,0,0,0,0.9042,0.9106,0.9131,0.9233,0.9252,0.9261,0.9298,0.9288,0.9329,0.9346,0.937,0.9413,0.9478,0.9522,0.9584,0.9712,0.9722,0.9771,0.9787,0.98,0.9814,0.9882,0.9904,0.967,0.967,0.967,0,0,0.9106,0.9131,0.9172,0.9249,0.9277,0.9346,0.9275,0.9351,0.9402,0.9359,0.9458,0.9478,0.9525,0.9642,0.9695,0.9663,0.988,0.9813,0.9823,0.983,0.9895,0.9917,0.9937,0.9677,0.9676,0.9675,0,0,0.9257,0.9282,0.9369,0.9398,0.9441,0.9445,0.9466,0.9503,0.9513,0.9612,0.958,0.9642,0.9755,0.9789,0.9822,0.9983,0.9957,1.0003,1.0088,1.0155,1.0174,1.019,1.0247,1.0268,1.0016,1.0017,1.0017,0,0.9332,0.9431,0.9418,0.9495,0.9529,0.9489,0.9578,0.9608,0.967,0.9696,0.9658,0.9797,0.9827,0.9951,0.9989,1.0017,1.0041,0.9999,1.0172,1.0188,1.0203,1.0258,1.0279,1.0022,1.0021,1.0021,1.002,0,0.9521,0.9591,0.9656,0.9713,0.9755,0.9838,0.9838,0.9882,0.9869,0.9877,0.9979,1.0012,1.0079,1.0107,1.0097,1.023,1.0208,1.0172,1.0106,1.0231,1.0282,1.0303,1.003,1.0028,1.0026,1.0025,0,0,0.9726,0.9771,0.9796,0.982,0.9863,0.9918,0.9999,1.0061,1.0099,1.0143,1.0211,1.0306,1.0271,1.0308,1.03,1.0359,1.0484,1.0315,1.0316,1.0345,1.0632,1.0659,1.0684,1.0466,1.047,1.0473,1.0628,0,0.988,1.0017,1.0006,1.0138,1.0202,1.0163,1.0233,1.0269,1.0278,1.0335,1.0347,1.0414,1.0363,1.0385,1.0441,1.0457,1.0541,1.0445,1.0531,1.0534,1.0521,1.0711,1.0741,1.0885,1.0648,1.0651,1.0654,0,1.0078,1.0124,1.0261,1.0292,1.0318,1.0382,1.0437,1.0491,1.053,1.0533,1.0572,1.0554,1.0637,1.0568,1.0683,1.0618,1.0652,1.0665,1.067,1.0679,1.0602,1.0725,1.0931,1.0953,1.0685,1.0682,1.068,0,1.0213,1.031,1.0404,1.0426,1.0465,1.051,1.0529,1.0564,1.0601,1.065,1.0674,1.0733,1.0766,1.0812,1.0811,1.0761,1.0927,1.0858,1.0933,1.0933,1.0971,1.0969,1.1186,1.0992,1.0992,1.0991,1.0991,0,1.0386,1.0471,1.0465,1.0523,1.0617,1.0604,1.0698,1.0712,1.0743,1.0804,1.0775,1.0834,1.0828,1.0887,1.0887,1.0982,1.0997,1.1002,1.1002,1.1005,1.1005,1.1029,1.1019,1.0997,1.0996,1.0995,1.0994,0,1.0554,1.0553,1.0652,1.0679,1.0688,1.0757,1.0781,1.0836,1.0842,1.092,1.0937,1.0947,1.1015,1.1018,1.1098,1.1097,1.1212,1.12,1.1198,1.1196,1.1271,1.1264,1.1512,1.1544,1.1328,1.133,1.1332,0,1.0665,1.0729,1.0761,1.0798,1.0819,1.088,1.0916,1.0906,1.0946,1.0993,1.1043,1.1107,1.1159,1.1269,1.1285,1.1345,1.1335,1.1417,1.1344,1.1345,1.1336,1.1333,1.1339,1.1432,1.1435,1.1437,1.1438,0,1.0861,1.0857,1.0909,1.0961,1.1005,1.1046,1.1085,1.1117,1.1111,1.1157,1.1224,1.1264,1.1342,1.1407,1.1465,1.1487,1.1463,1.1461,1.1481,1.1486,1.1483,1.1485,1.1238,1.1456,1.1454,1.1453,1.1452,1.1451,1.1004,1.1059,1.1089,1.1148,1.1175,1.1211,1.1263,1.1274,1.1329,1.139,1.1381,1.1456,1.1492,1.1566,1.1592,1.1652,1.1624,1.1654,1.1661,1.1669,1.1677,1.1472,1.1663,1.1662,1.1662,1.1661,1.1661,0,1.1199,1.1216,1.127,1.1323,1.1369,1.1338,1.1378,1.142,1.1485,1.152,1.1569,1.1646,1.1708,1.1727,1.1787,1.1831,1.1822,1.1848,1.1845,1.185,1.1699,1.1675,1.1854,1.1854,1.1854,1.1854,1.1854,1.1854,1.1306,1.1396,1.1395,1.1498,1.1515,1.1586,1.1611,1.1644,1.1671,1.1757,1.1807,1.1818,1.1846,1.1908,1.1963,1.1968,1.1991,1.2022,1.2022,1.1881,1.1861,1.1843,1.182,1.2027,1.2028,1.2169,1.217,1.2171]}]]